CW0630 Weather Reports


time (UTC)temp
C
wind
direction
speed
KPH
gust
KPH
rain 1hr
cm
rain 24hr
cm
rain mn
cm
humidity
%
barometer
mb
20260903151030 31 34 0.0 0.0 0.00 0.00 0.00 72 1017.6
20260903141021 31 27 4.8 4.8 0.00 0.00 0.00 70 1017.2
20260903131017 30 148 0.0 0.0 0.00 0.00 0.00 74 1017.4
20260903121029 26 132 0.0 0.0 0.00 0.00 0.00 91 1017.7
20260903111021 23 75 0.0 0.0 0.00 0.00 0.00 96 1017.1
20260903101012 23 74 0.0 0.0 0.00 0.00 0.00 95 1017.1
20260903091012 23 75 0.0 0.0 0.00 0.00 0.00 95 1016.6
20260903081025 23 47 0.0 0.0 0.00 0.00 0.00 95 1016.6
20260903071049 24 47 0.0 0.0 0.00 0.00 0.00 94 1016.9
20260903061043 24 47 0.0 0.0 0.00 0.00 0.00 93 1017.1
20260903051021 25 57 0.0 0.0 0.00 0.00 0.00 91 1017.6
20260903041022 25 205 0.0 0.0 0.00 0.00 0.00 90 1017.1
20260903031012 26 145 0.0 0.0 0.00 0.00 0.00 90 1017.0
20260903021022 26 143 0.0 0.0 0.00 0.00 0.00 87 1017.5
20260903011023 27 130 0.0 0.0 0.00 0.00 0.00 84 1017.6
20260903001042 28 108 1.6 1.6 0.00 0.00 0.00 81 1017.2
20260902231034 28 80 1.6 1.6 0.00 0.00 0.00 79 1017.7
20260902221017 29 121 0.0 0.0 0.00 0.00 0.00 75 1017.5
20260902211027 31 73 6.4 6.4 0.00 0.00 0.00 66 1017.2
20260902201014 34 9 11.3 11.3 0.00 0.00 0.00 59 1017.4
20260902191026 35 28 0.0 0.0 0.00 0.00 0.00 56 1017.2
20260902181038 35 117 0.0 6.4 0.00 0.00 0.00 56 1017.8
20260902171028 35 355 3.2 3.2 0.00 0.00 0.00 59 1018.0
20260902161020 34 54 0.0 3.2 0.00 0.00 0.00 58 1018.2